WB2COY Weather Reports


time (UTC)temp
C
wind
direction
speed
KPH
gust
KPH
rain 1hr
cm
rain 24hr
cm
rain mn
cm
humidity
%
barometer
mb
20260902060015 17 0.0 1.6 0.00 1.04 0.00 82 1019.5
20260902053016 17 0.0 1.6 0.00 1.09 0.00 82 1019.3
20260902050015 17 0.0 1.6 0.00 1.09 0.00 82 1019.4
20260902043015 17 0.0 3.2 0.00 1.14 0.00 82 1019.0
20260902040015 17 0.0 3.2 0.00 1.17 1.17 82 1018.6
20260902033016 17 0.0 3.2 0.00 1.19 1.17 82 1018.2
20260902030016 17 0.0 3.2 0.00 1.19 1.17 82 1018.0
20260902023023 18 0.0 4.8 0.00 1.22 1.17 81 1017.7
20260902020016 18 0.0 0.0 0.00 1.22 1.17 82 1017.6
20260902013019 18 0.0 0.0 0.00 1.22 1.17 82 1017.3
20260902010016 18 0.0 1.6 0.00 1.22 1.17 81 1016.9
20260902003016 19 0.0 8.0 0.00 1.24 1.17 81 1016.4
20260902000015 20 90 1.6 8.0 0.00 1.24 1.17 82 1015.9
20260901233017 21 68 1.6 11.3 0.33 1.24 1.17 82 1015.7
20260901230015 22 68 1.6 12.9 0.33 1.24 1.17 81 1015.7
20260901223018 22 68 1.6 3.2 0.03 0.91 0.84 82 1015.0
20260901220020 23 23 1.6 6.4 0.03 0.91 0.84 82 1014.8
20260901213015 23 0 1.6 4.8 0.00 0.89 0.81 81 1014.5
20260901210035 24 0.0 0.0 0.00 0.89 0.81 80 1014.4
20260901203017 25 0.0 0.0 0.00 0.89 0.81 77 1014.2
20260901200015 26 0.0 0.0 0.00 0.89 0.81 74 1014.0
20260901193035 26 0.0 1.6 0.00 0.91 0.81 72 1014.1
20260901190017 27 0.0 3.2 0.00 0.91 0.81 72 1014.1
20260901183017 27 0.0 3.2 0.00 0.91 0.81 72 1014.3
20260901180022 26 225 1.6 8.0 0.00 0.91 0.81 75 1014.3
20260901173017 25 0.0 6.4 0.00 0.91 0.81 76 1014.1
20260901170022 24 0.0 6.4 0.00 0.91 0.81 80 1014.3
20260901163017 23 0.0 3.2 0.00 0.91 0.81 82 1014.6
20260901160017 22 0.0 3.2 0.00 0.91 0.81 84 1015.1
20260901153036 22 0.0 4.8 0.00 0.91 0.81 84 1015.6
20260901150016 21 0.0 3.2 0.00 0.91 0.81 84 1015.6
20260901143016 21 0.0 1.6 0.08 0.91 0.81 84 1015.4
20260901140036 21 0.0 1.6 0.23 0.91 0.81 84 1015.8
20260901133016 21 0.0 0.0 0.30 0.84 0.74 84 1015.8
20260901130021 20 0.0 0.0 0.28 0.69 0.58 84 1016.1
20260901123016 20 0.0 3.2 0.13 0.53 0.43 84 1016.0
20260901120016 20 0.0 3.2 0.03 0.41 0.30 84 1015.8
20260901113037 20 0.0 1.6 0.05 0.41 0.30 84 1015.6
20260901110016 20 0.0 1.6 0.03 0.38 0.28 84 1015.8
20260901103016 20 0.0 0.0 0.00 0.36 0.25 84 1015.6
20260901100016 20 0.0 1.6 0.00 0.36 0.25 84 1015.7
20260901093021 20 0.0 1.6 0.00 0.36 0.25 84 1015.7
20260901090016 20 0.0 1.6 0.13 0.36 0.25 84 1015.7
20260901083016 20 0.0 0.0 0.13 0.36 0.25 84 1016.0
20260901080016 20 0.0 0.0 0.00 0.23 0.13 84 1016.2
20260901073016 20 0.0 0.0 0.00 0.23 0.13 84 1016.6
20260901070016 20 0.0 1.6 0.00 0.23 0.13 84 1016.7
20260901063016 20 0.0 1.6 0.05 0.23 0.13 83 1016.8